User: anonymous   Login
Location: Camp Creek
(33.9000°N, 111.8167°W)
Time: 12:11:21
(UTC-07:00)
Language:

Cosmos 2322 Rocket - Orbit

View from above orbital plane
View from above orbital plane
View from above satellite
View from above satellite

Ground track
Ground track

The orbit data is extracted from the following two-line orbital elements,

1 23705U 95058B   17049.90774069 -.00000278 +00000-0 -11857-3 0  9991
2 23705 071.0208 277.1926 0010501 124.8148 235.3964 14.15095228100152
Epoch (UTC): 18 February 2017 21:47:08
Eccentricity: 0.0010501
inclination: 71.0208°
perigee height: 834 km
apogee height: 849 km
right ascension of ascending node: 277.1926°
argument of perigee: 124.8148°
revolutions per day: 14.15095228
mean anomaly at epoch: 235.3964°
orbit number at epoch: 10015

The dashed part of the orbit path shows where the satellite is in the earth's shadow,  

DLR